Location: Góry Miechowskie
(50.3599°N, 20.1803°E)
Time: 12:15:44
(UTC+00:00)

Resurs 1-4 Rocket - Pass Details

Date: 18 September 2024
Orbit: 798 x 813 km, 98.8° (Epoch: 08 October)

Event Time Altitude Azimuth Distance (km) Brightness Sun altitude
Rises 01:18:04 0° 12° (NNE) 3,321 6.1 -27.2°
Reaches altitude 10° 01:20:26 10° 10° (N) 2,385 5.2 -26.9°
Enters shadow 01:25:21 61° 306° (NW) 906 2.2 -26.3°
